Aérodrome :
LOGIN :

S'inscrire | Disclaimer

   EN    FR    IT 

 










Légende :    VFR   VFR Marginal   IFR   IFR Intensif   IFR Très Intensif
Visi : 
Plafond : 
>= 8 km
>= 3000ft
5 à 8 km
1000 à 3000 ft
1500m à 5 km
500 à 1000 ft
800 à 1500m
200 à 500 ft
< 800m
< 200 ft
Symboles :   Orages  Brouillard  Fortes neiges  Fortes précipitations  Vent > 20 kt
SIGMETs :   Divers  Orages  Givrage  Turbulence  Onde Orograph.  Cendres Volcan.







- Altitude de l'aérodrome : 102 ft
- Code IATA : EXT
- Voir les cartes d'approche


EGTE - Exeter

DERNIER METAR :
  • 230020Z VRB02KT 6000 VCFG NSC 14/14 Q1021

METARs EXPIRÉS :
  • 222350Z 00000KT CAVOK 15/15 Q1021
  • 222320Z VRB02KT CAVOK 15/15 Q1021
  • 222250Z 08004KT CAVOK 17/16 Q1021
  • 222220Z 07003KT 9999 FEW035 17/16 Q1021

TAF AMD TAF EGTE
Valide du 23 à 00h jusqu'au 23 à 03h UTC


230052Z 2300/2303 12004KT 6000 FEW018
TEMPO 2300/2303 0900 FG
PROB40
TEMPO 2300/2303 0300 BKN001
Pas de NOTAMs connus pour ce terrain.



MET'MAP, la Météo Aéronautique d'un coup d'oeil ! - Copyright ORBIFLY Décembre 2007 - Disclaimer

ORBIFLY MET'MAP TEAM :

Programmation & Développement : Alexandra Zaïnal
Conception & Développement : Baudouin d'Aumeries
Co-Programmation & Développement : Marc-Olivier Méhu
Soutien technique & logistique : Manuel Goepfert

Contact : metmap@orbifly.com




SOURCES & CREDITS :

   NOAA